,,PA_Meas_PMT16A,,PR_Meas_QMR101_102,,RH_Meas_QMH101,,SR_Meas_QMS101,,TA_Meas_QMH101,,GenWind,,GenWind,
time,status,PA,status,PR,status,RH,status,SR,status,TA,status,DirAvg,status,SpdAvg,
2015-02-18, 08:47:04,VALID,918.391,VALID,0,VALID,98.1667,VALID,68.2251,VALID,20.1513,VALID,109,VALID,0,
2015-02-18, 08:48:04,VALID,918.43,VALID,0,VALID,98.182,VALID,70.4814,VALID,20.1708,VALID,109,VALID,0,
2015-02-18, 08:49:04,VALID,918.464,VALID,0,VALID,98.1896,VALID,72.4153,VALID,20.1708,VALID,108,VALID,0,
2015-02-18, 08:50:04,VALID,918.455,VALID,0,VALID,98.1896,VALID,74.2418,VALID,20.1498,VALID,108,VALID,0,
2015-02-18, 08:51:04,VALID,918.454,VALID,0,VALID,98.1667,VALID,75.5311,VALID,20.2293,VALID,106,VALID,0,
2015-02-18, 08:52:04,VALID,918.495,VALID,0,VALID,98.1667,VALID,76.4981,VALID,20.2684,VALID,106,VALID,0,
2015-02-18, 08:53:04,VALID,918.504,VALID,0,VALID,98.1667,VALID,76.8204,VALID,20.2684,VALID,106,VALID,0,
2015-02-18, 08:54:04,VALID,918.516,VALID,0,VALID,98.1743,VALID,76.8204,VALID,20.2879,VALID,106,VALID,0,
2015-02-18, 08:55:04,VALID,918.544,VALID,0,VALID,98.1896,VALID,76.6055,VALID,20.2879,VALID,85,VALID,0,
2015-02-18, 08:56:04,VALID,918.579,VALID,0,VALID,98.1667,VALID,76.2832,VALID,20.3269,VALID,85,VALID,0,
2015-02-18, 08:57:04,VALID,918.589,VALID,0,VALID,98.1743,VALID,74.5642,VALID,20.3854,VALID,85,VALID,0,
2015-02-18, 08:58:04,VALID,918.647,VALID,0,VALID,98.182,VALID,72.5228,VALID,20.3838,VALID,85,VALID,0,
2015-02-18, 08:59:04,VALID,918.675,VALID,0,VALID,98.1743,VALID,69.5144,VALID,20.4049,VALID,85,VALID,0,
2015-02-18, 09:00:04,VALID,918.699,VALID,0,VALID,98.1743,VALID,66.5061,VALID,20.4244,VALID,85,VALID,0,
2015-02-18, 09:01:04,VALID,918.741,VALID,0,VALID,98.1515,VALID,62.8531,VALID,20.4439,VALID,85,VALID,0,
2015-02-18, 09:02:04,VALID,918.796,VALID,0,VALID,98.1515,VALID,58.0182,VALID,20.4439,VALID,85,VALID,0,
2015-02-18, 09:03:04,VALID,918.805,VALID,0,VALID,98.1743,VALID,53.828,VALID,20.4634,VALID,85,VALID,0,
2015-02-18, 09:04:04,VALID,918.813,VALID,0,VALID,98.1591,VALID,51.5718,VALID,20.4829,VALID,85,VALID,0,
2015-02-18, 09:05:04,VALID,918.841,VALID,0,VALID,98.182,VALID,50.4973,VALID,20.4228,VALID,85,VALID,0,
2015-02-18, 09:06:04,VALID,918.837,VALID,0,VALID,98.1515,VALID,50.3899,VALID,20.4813,VALID,85,VALID,0,
2015-02-18, 09:07:04,VALID,918.843,VALID,0,VALID,98.1515,VALID,50.6048,VALID,20.5219,VALID,85,VALID,0,
2015-02-18, 09:08:04,VALID,918.887,VALID,0,VALID,98.1591,VALID,50.3899,VALID,20.5219,VALID,85,VALID,0,
2015-02-18, 09:09:04,VALID,918.913,VALID,0,VALID,98.1362,VALID,49.6378,VALID,20.5204,VALID,85,VALID,0,
2015-02-18, 09:10:04,VALID,918.913,VALID,0,VALID,98.1591,VALID,48.6708,VALID,20.5009,VALID,85,VALID,0,
2015-02-18, 09:11:04,VALID,918.917,VALID,0,VALID,98.1591,VALID,47.0592,VALID,20.5024,VALID,85,VALID,0,
2015-02-18, 09:12:04,VALID,918.943,VALID,0,VALID,98.1743,VALID,45.3402,VALID,20.4813,VALID,85,VALID,0,
2015-02-18, 09:13:04,VALID,918.989,VALID,0,VALID,98.1591,VALID,43.4062,VALID,20.4618,VALID,85,VALID,0,
2015-02-18, 09:14:04,VALID,918.991,VALID,0,VALID,98.1591,VALID,42.5467,VALID,20.4829,VALID,85,VALID,0,
2015-02-18, 09:15:04,VALID,918.993,VALID,0,VALID,98.1591,VALID,42.5467,VALID,20.4618,VALID,85,VALID,0,
2015-02-18, 09:16:04,VALID,918.998,VALID,0.2,VALID,98.1362,VALID,43.4062,VALID,20.4813,VALID,85,VALID,0,
2015-02-18, 09:17:04,VALID,919.021,VALID,0,VALID,98.1362,VALID,44.6955,VALID,20.4813,VALID,85,VALID,0,
2015-02-18, 09:18:04,VALID,918.995,VALID,0,VALID,98.1286,VALID,46.3071,VALID,20.5024,VALID,85,VALID,0,
2015-02-18, 09:19:04,VALID,918.999,VALID,0,VALID,98.1286,VALID,48.0262,VALID,20.4829,VALID,85,VALID,0,
2015-02-18, 09:20:04,VALID,918.98,VALID,0,VALID,98.1515,VALID,49.9601,VALID,20.4618,VALID,85,VALID,0,
2015-02-18, 09:21:04,VALID,919.006,VALID,0,VALID,98.1439,VALID,51.3569,VALID,20.4423,VALID,85,VALID,0,
2015-02-18, 09:22:04,VALID,918.998,VALID,0,VALID,98.1439,VALID,52.3238,VALID,20.4244,VALID,85,VALID,0,
2015-02-18, 09:23:04,VALID,919.021,VALID,0,VALID,98.1439,VALID,52.109,VALID,20.4049,VALID,85,VALID,0,
2015-02-18, 09:24:04,VALID,919.008,VALID,0,VALID,98.1057,VALID,51.4643,VALID,20.4634,VALID,85,VALID,0,
2015-02-18, 09:25:04,VALID,919.021,VALID,0,VALID,98.0829,VALID,51.3569,VALID,20.5009,VALID,85,VALID,0,
2015-02-18, 09:26:04,VALID,919.01,VALID,0.2,VALID,98.0752,VALID,51.0345,VALID,20.4813,VALID,85,VALID,0,
2015-02-18, 09:27:04,VALID,919.006,VALID,0,VALID,98.0981,VALID,51.2494,VALID,20.4423,VALID,85,VALID,0,
2015-02-18, 09:28:04,VALID,919.019,VALID,0,VALID,98.0829,VALID,51.6792,VALID,20.4634,VALID,85,VALID,0,
2015-02-18, 09:29:04,VALID,919.015,VALID,0,VALID,98.0905,VALID,52.2164,VALID,20.4244,VALID,85,VALID,0,
2015-02-18, 09:30:04,VALID,918.998,VALID,0,VALID,98.0829,VALID,52.5387,VALID,20.4049,VALID,85,VALID,0,
2015-02-18, 09:31:04,VALID,918.972,VALID,0,VALID,98.06,VALID,52.7536,VALID,20.3854,VALID,85,VALID,0,
2015-02-18, 09:32:04,VALID,919.011,VALID,0,VALID,98.0219,VALID,52.4313,VALID,20.4049,VALID,85,VALID,0,
2015-02-18, 09:33:04,VALID,919.04,VALID,0,VALID,98.0219,VALID,52.0015,VALID,20.3854,VALID,85,VALID,0,
2015-02-18, 09:35:04,VALID,919.041,VALID,0,VALID,97.9533,VALID,50.3899,VALID,20.3854,VALID,85,VALID,0,
2015-02-18, 09:36:04,VALID,919.068,VALID,0,VALID,97.8923,VALID,49.6378,VALID,20.4244,VALID,85,VALID,0,
2015-02-18, 09:37:04,VALID,919.068,VALID,0,VALID,97.8618,VALID,49.3155,VALID,20.4634,VALID,85,VALID,0,
2015-02-18, 09:38:04,VALID,919.074,VALID,0,VALID,97.8618,VALID,49.5304,VALID,20.4439,VALID,85,VALID,0,
2015-02-18, 09:39:04,VALID,919.091,VALID,0.2,VALID,97.8084,VALID,50.4973,VALID,20.4439,VALID,85,VALID,0,
2015-02-18, 09:40:04,VALID,919.085,VALID,0,VALID,97.7627,VALID,51.7866,VALID,20.4829,VALID,85,VALID,0,
2015-02-18, 09:41:04,VALID,919.059,VALID,0,VALID,97.7017,VALID,53.3983,VALID,20.5024,VALID,85,VALID,0,
2015-02-18, 09:42:04,VALID,919.085,VALID,0,VALID,97.6636,VALID,54.6875,VALID,20.5609,VALID,85,VALID,0,
2015-02-18, 09:43:04,VALID,919.081,VALID,0,VALID,97.5873,VALID,55.5471,VALID,20.5414,VALID,85,VALID,0,
2015-02-18, 09:44:04,VALID,919.104,VALID,0,VALID,97.5264,VALID,55.8694,VALID,20.5804,VALID,85,VALID,0,
2015-02-18, 09:45:04,VALID,919.121,VALID,0,VALID,97.473,VALID,55.8694,VALID,20.5999,VALID,85,VALID,0,
2015-02-18, 09:46:04,VALID,919.108,VALID,0,VALID,97.3968,VALID,55.6545,VALID,20.6194,VALID,85,VALID,0,
2015-02-18, 09:47:04,VALID,919.108,VALID,0,VALID,97.3739,VALID,56.1917,VALID,20.639,VALID,85,VALID,0,
2015-02-18, 09:48:04,VALID,919.138,VALID,0,VALID,97.2824,VALID,57.481,VALID,20.639,VALID,85,VALID,0,
2015-02-18, 09:49:04,VALID,919.12,VALID,0.2,VALID,97.2214,VALID,58.7703,VALID,20.639,VALID,85,VALID,0,
2015-02-18, 09:50:04,VALID,919.118,VALID,0,VALID,97.0918,VALID,60.167,VALID,20.5999,VALID,85,VALID,0,
2015-02-18, 09:51:04,VALID,919.104,VALID,0,VALID,97.0156,VALID,61.3489,VALID,20.6194,VALID,85,VALID,0,
2015-02-18, 09:52:04,VALID,919.116,VALID,0,VALID,96.9241,VALID,61.7787,VALID,20.6194,VALID,85,VALID,0,
2015-02-18, 09:53:04,VALID,919.126,VALID,0,VALID,96.8479,VALID,61.134,VALID,20.6194,VALID,85,VALID,0,
2015-02-18, 09:54:04,VALID,919.135,VALID,0,VALID,96.7564,VALID,60.2745,VALID,20.5999,VALID,85,VALID,0,
2015-02-18, 09:55:04,VALID,919.183,VALID,0,VALID,96.6802,VALID,58.9852,VALID,20.5804,VALID,85,VALID,0,
2015-02-18, 09:56:04,VALID,919.187,VALID,0,VALID,96.7259,VALID,56.6215,VALID,20.5999,VALID,85,VALID,0,
2015-02-18, 09:57:04,VALID,919.194,VALID,0,VALID,96.7793,VALID,52.2164,VALID,20.6194,VALID,85,VALID,0,
2015-02-18, 09:58:04,VALID,919.195,VALID,0.2,VALID,96.825,VALID,48.1336,VALID,20.6194,VALID,85,VALID,0,
2015-02-18, 09:59:04,VALID,919.2,VALID,0,VALID,96.8707,VALID,47.9188,VALID,20.5804,VALID,85,VALID,0,
2015-02-18, 10:00:04,VALID,919.205,VALID,0,VALID,96.8707,VALID,47.489,VALID,20.5609,VALID,85,VALID,0,
2015-02-18, 10:01:04,VALID,919.228,VALID,0,VALID,96.9546,VALID,47.9188,VALID,20.5609,VALID,85,VALID,0,
2015-02-18, 10:02:04,VALID,919.246,VALID,0,VALID,97.0385,VALID,47.3815,VALID,20.5594,VALID,85,VALID,0,
2015-02-18, 10:03:04,VALID,919.248,VALID,0,VALID,97.069,VALID,46.3071,VALID,20.5204,VALID,85,VALID,0,
